Flag for Germany Weather past 2 weeks in Frankfurt, Hesse, Germany

Now
50 °F

Partly sunny.


Feels Like: 47 °F
Forecast: 41 / 54 °F
Wind: 8 mph from West

Location: Frankfurt-M-Flughafen Airport

Current Time: Oct 23, 2014 at 10:17:36 AM

Latest Report: Oct 23, 2014 at 9:50 AM


Visibility: N/A

Pressure: 30.24 "Hg

Humidity: 82%

Dew point: 45 °F

Location of FrankfurtLocation

Historic Weather in Frankfurt — Graph

°F

Frankfurt temperature yesterday

Maximum temperature yesterday: 50 °F (at 2:20 PM)
Minimum temperature yesterday: 45 °F (at 5:20 AM)
Average temperature yesterday: 48 °F

Past Weeks' High & Low Weather Summary

 TemperatureHumidityPressure
High72 °F (Oct 19, 3:50 PM)100% (Oct 8, 9:20 AM)30.24 "Hg (Oct 8, 9:20 AM)
Low45 °F (Oct 21, 4:20 AM)60% (Oct 20, 1:50 PM)29.56 "Hg (Oct 21, 5:50 PM)
Average57 °F90%29.91 "Hg
* Reported Oct 8 9:20 AM — Oct 23 9:20 AM, Frankfurt, Weather by CustomWeather, © 2014

Note: Actual official high and low records may vary slightly from our data, if they occured in-between our weather recording intervals... More about our weather records

Advertising

Frankfurt weather history for previous 24 hours

 ConditionsComfort  
Time TempWeatherWind HumidityBarometerVisibility
9:20 AM
Oct 23
50 °FPartly sunny.7 mph82%30.24 "HgN/A
8:50 AM48 °FPassing clouds.8 mph87%30.24 "HgN/A
8:20 AM48 °FPassing clouds.5 mph87%30.21 "HgN/A
7:50 AM48 °FPassing clouds.6 mph87%30.21 "HgN/A
7:20 AM48 °FPassing clouds.7 mph87%30.21 "HgN/A
6:50 AM48 °FPassing clouds.8 mph82%30.21 "HgN/A
6:20 AM48 °FPassing clouds.8 mph82%30.21 "HgN/A
5:50 AM48 °FPassing clouds.9 mph82%30.18 "HgN/A
5:20 AM48 °FPassing clouds.8 mph82%30.18 "HgN/A
4:50 AM48 °FPassing clouds.10 mph82%30.18 "HgN/A
4:20 AM48 °FPassing clouds.15 mph82%30.18 "HgN/A
3:50 AM48 °FPassing clouds.9 mph82%30.18 "HgN/A
3:20 AM48 °FClear.10 mph82%30.18 "Hg10 mi
2:50 AM48 °FClear.9 mph82%30.18 "Hg10 mi
2:20 AM48 °FClear.9 mph82%30.15 "Hg10 mi
1:50 AM48 °FClear.10 mph82%30.15 "Hg10 mi
1:20 AM48 °FPassing clouds.10 mph76%30.15 "HgN/A
12:50 AM48 °FPassing clouds.6 mph82%30.15 "HgN/A
12:20 AM48 °FPassing clouds.8 mph76%30.15 "HgN/A
11:50 PM
Oct 22
50 °FPassing clouds.8 mph67%30.12 "HgN/A
11:20 PM50 °FPassing clouds.8 mph71%30.12 "HgN/A
10:50 PM50 °FPassing clouds.14 mph71%30.12 "HgN/A
10:20 PM50 °FPassing clouds.13 mph76%30.12 "HgN/A
9:50 PM50 °FPassing clouds.10 mph71%30.12 "HgN/A
9:20 PM50 °FPassing clouds.13 mph71%30.09 "HgN/A
8:50 PM50 °FPassing clouds.15 mph71%30.09 "HgN/A
8:20 PM50 °FPassing clouds.13 mph71%30.09 "HgN/A
7:50 PM50 °FPassing clouds.14 mph71%30.07 "HgN/A
7:20 PM50 °FPartly sunny.13 mph71%30.07 "HgN/A
6:50 PM50 °FPartly sunny.13 mph71%30.07 "HgN/A
6:20 PM50 °FScattered clouds.15 mph76%30.04 "HgN/A
5:50 PM50 °FScattered clouds.17 mph76%30.01 "HgN/A
5:20 PM50 °FPartly sunny.16 mph76%30.01 "HgN/A
4:20 PM50 °FSprinkles. Partly sunny.16 mph76%30.01 "HgN/A
3:50 PM50 °FPartly sunny.17 mph76%30.01 "HgN/A
3:20 PM48 °FSprinkles. Partly sunny.14 mph82%30.01 "HgN/A
2:50 PM48 °FSprinkles. Partly sunny.16 mph82%30.01 "HgN/A
2:20 PM50 °FSprinkles. Partly sunny.17 mph71%30.01 "HgN/A
1:50 PM48 °FPartly sunny.15 mph76%30.01 "HgN/A
1:20 PM46 °FLight rain. Partly sunny.14 mph82%30.01 "HgN/A
12:50 PM46 °FLight rain. Partly sunny.15 mph82%30.01 "HgN/A
12:20 PM46 °FLight rain. Partly sunny.15 mph82%30.04 "HgN/A
11:50 AM45 °FLight rain. Partly sunny.16 mph87%30.04 "HgN/A
11:20 AM45 °FLight rain. Partly sunny.14 mph87%30.04 "HgN/A
10:50 AM45 °FSprinkles. Partly sunny.14 mph87%30.01 "HgN/A
10:20 AM46 °FBroken clouds.15 mph76%30.01 "HgN/A
Weather by CustomWeather, © 2014

See weather overviewHow to use our weather pages